| time (UTC) | temp C | wind direction | speed KPH | gust KPH | rain 1hr cm | rain 24hr cm | rain mn cm | humidity % | barometer mb |
| 20260510123055 | 22 | 0 | 0.0 | 0.0 | 0.00 | 0.38 | 0.00 | 96 | 1016.7 |
| 20260510122548 | 22 | 0 | 0.0 | 0.0 | 0.00 | 0.38 | 0.00 | 96 | 1016.8 |
| 20260510122042 | 22 | 305 | 0.0 | 0.0 | 0.00 | 0.38 | 0.00 | 96 | 1016.7 |
| 20260510121548 | 21 | 0 | 0.0 | 0.0 | 0.00 | 0.38 | 0.00 | 96 | 1016.6 |
| 20260510121045 | 21 | 0 | 0.0 | 0.0 | 0.00 | 0.38 | 0.00 | 96 | 1016.5 |
| 20260510120545 | 21 | 0 | 0.0 | 0.0 | 0.00 | 0.38 | 0.00 | 96 | 1016.5 |
| 20260510120048 | 21 | 0 | 0.0 | 0.0 | 0.00 | 0.38 | 0.00 | 96 | 1016.5 |
| 20260510115544 | 21 | 0 | 0.0 | 0.0 | 0.00 | 0.38 | 0.00 | 96 | 1016.5 |
| 20260510115045 | 21 | 0 | 0.0 | 0.0 | 0.00 | 0.38 | 0.00 | 96 | 1016.4 |
| 20260510114548 | 21 | 0 | 0.0 | 0.0 | 0.00 | 0.38 | 0.00 | 96 | 1016.3 |
| 20260510114044 | 21 | 0 | 0.0 | 0.0 | 0.00 | 0.38 | 0.00 | 96 | 1016.3 |
| 20260510113548 | 21 | 0 | 0.0 | 0.0 | 0.00 | 0.38 | 0.00 | 96 | 1016.2 |
| 20260510113059 | 21 | 0 | 0.0 | 1.6 | 0.00 | 0.38 | 0.00 | 96 | 1016.3 |
| 20260510112543 | 21 | 0 | 0.0 | 1.6 | 0.00 | 0.38 | 0.00 | 96 | 1016.1 |
| 20260510112044 | 21 | 0 | 0.0 | 0.0 | 0.00 | 0.38 | 0.00 | 96 | 1016.1 |
| 20260510111603 | 21 | 0 | 0.0 | 1.6 | 0.00 | 0.38 | 0.00 | 96 | 1016.1 |
| 20260510111048 | 21 | 0 | 0.0 | 1.6 | 0.00 | 0.38 | 0.00 | 96 | 1015.9 |
| 20260510110546 | 20 | 0 | 0.0 | 1.6 | 0.00 | 0.38 | 0.00 | 96 | 1016.0 |
| 20260510110051 | 20 | 0 | 0.0 | 1.6 | 0.00 | 0.38 | 0.00 | 96 | 1015.6 |
| 20260510105545 | 20 | 0 | 0.0 | 1.6 | 0.00 | 0.38 | 0.00 | 96 | 1015.7 |
| 20260510105045 | 20 | 0 | 0.0 | 1.6 | 0.00 | 0.38 | 0.00 | 96 | 1015.5 |
| 20260510104602 | 21 | 61 | 0.0 | 1.6 | 0.00 | 0.38 | 0.00 | 96 | 1015.5 |
| 20260510104046 | 20 | 0 | 0.0 | 0.0 | 0.00 | 0.38 | 0.00 | 96 | 1015.6 |
| 20260510103544 | 20 | 0 | 0.0 | 0.0 | 0.00 | 0.38 | 0.00 | 96 | 1015.5 |
| 20260510103048 | 21 | 0 | 0.0 | 0.0 | 0.00 | 0.38 | 0.00 | 96 | 1015.5 |
| 20260510102544 | 21 | 0 | 0.0 | 0.0 | 0.00 | 0.38 | 0.00 | 96 | 1015.3 |
| 20260510102045 | 21 | 0 | 0.0 | 0.0 | 0.00 | 0.38 | 0.00 | 96 | 1015.3 |
| 20260510101551 | 21 | 0 | 0.0 | 0.0 | 0.00 | 0.38 | 0.00 | 96 | 1015.3 |
| 20260510101044 | 21 | 0 | 0.0 | 0.0 | 0.00 | 0.38 | 0.00 | 96 | 1015.3 |
| 20260510100548 | 21 | 0 | 0.0 | 0.0 | 0.00 | 0.38 | 0.00 | 96 | 1015.4 |
| 20260510100045 | 21 | 0 | 0.0 | 0.0 | 0.00 | 0.38 | 0.00 | 96 | 1015.3 |
| 20260510095545 | 21 | 0 | 0.0 | 0.0 | 0.00 | 0.38 | 0.00 | 96 | 1015.2 |
| 20260510095048 | 21 | 0 | 0.0 | 1.6 | 0.00 | 0.38 | 0.00 | 96 | 1015.1 |
| 20260510094600 | 21 | 0 | 0.0 | 1.6 | 0.00 | 0.38 | 0.00 | 96 | 1015.2 |
| 20260510094045 | 21 | 61 | 0.0 | 1.6 | 0.00 | 0.38 | 0.00 | 96 | 1015.1 |
| 20260510093545 | 20 | 0 | 0.0 | 0.0 | 0.00 | 0.38 | 0.00 | 95 | 1015.0 |
| 20260510093055 | 21 | 0 | 0.0 | 0.0 | 0.00 | 0.38 | 0.00 | 95 | 1015.0 |
| 20260510092545 | 21 | 0 | 0.0 | 0.0 | 0.00 | 0.38 | 0.00 | 95 | 1014.8 |
| 20260510092048 | 21 | 0 | 0.0 | 0.0 | 0.00 | 0.38 | 0.00 | 95 | 1014.9 |
| 20260510091605 | 21 | 0 | 0.0 | 0.0 | 0.00 | 0.38 | 0.00 | 95 | 1014.8 |
| 20260510091044 | 21 | 0 | 0.0 | 0.0 | 0.00 | 0.38 | 0.00 | 95 | 1014.7 |
| 20260510090543 | 21 | 0 | 0.0 | 0.0 | 0.00 | 0.38 | 0.00 | 95 | 1014.6 |
| 20260510085547 | 21 | 0 | 0.0 | 0.0 | 0.00 | 0.38 | 0.00 | 95 | 1014.6 |
| 20260510085045 | 21 | 0 | 0.0 | 0.0 | 0.00 | 0.38 | 0.00 | 95 | 1014.4 |
| 20260510084557 | 21 | 0 | 0.0 | 1.6 | 0.00 | 0.38 | 0.00 | 95 | 1014.4 |
| 20260510084044 | 21 | 0 | 0.0 | 1.6 | 0.00 | 0.38 | 0.00 | 95 | 1014.4 |
| 20260510083545 | 21 | 61 | 0.0 | 1.6 | 0.00 | 0.38 | 0.00 | 95 | 1014.4 |
| 20260510083054 | 21 | 0 | 0.0 | 1.6 | 0.00 | 0.38 | 0.00 | 95 | 1014.3 |
| 20260510082544 | 21 | 0 | 0.0 | 1.6 | 0.00 | 0.38 | 0.00 | 95 | 1014.3 |
| 20260510082045 | 21 | 61 | 0.0 | 1.6 | 0.00 | 0.38 | 0.00 | 95 | 1014.3 |
| 20260510081600 | 21 | 60 | 0.0 | 1.6 | 0.00 | 0.38 | 0.00 | 96 | 1014.3 |
| 20260510081045 | 21 | 60 | 0.0 | 1.6 | 0.00 | 0.38 | 0.00 | 95 | 1014.4 |
| 20260510080545 | 21 | 60 | 0.0 | 1.6 | 0.00 | 0.38 | 0.00 | 95 | 1014.4 |
| 20260510080057 | 21 | 0 | 0.0 | 0.0 | 0.00 | 0.38 | 0.00 | 95 | 1014.4 |
| 20260510075544 | 21 | 0 | 0.0 | 0.0 | 0.00 | 0.38 | 0.00 | 95 | 1014.5 |
| 20260510075044 | 21 | 0 | 0.0 | 0.0 | 0.00 | 0.38 | 0.00 | 95 | 1014.3 |
| 20260510074553 | 21 | 0 | 0.0 | 0.0 | 0.00 | 0.38 | 0.00 | 95 | 1014.3 |
| 20260510074047 | 21 | 0 | 0.0 | 0.0 | 0.00 | 0.38 | 0.00 | 95 | 1014.3 |
| 20260510073545 | 21 | 0 | 0.0 | 0.0 | 0.00 | 0.38 | 0.00 | 95 | 1014.2 |
| 20260510073055 | 21 | 0 | 0.0 | 0.0 | 0.00 | 0.38 | 0.00 | 95 | 1014.1 |
| 20260510072544 | 21 | 0 | 0.0 | 1.6 | 0.00 | 0.38 | 0.00 | 95 | 1014.2 |
| 20260510072045 | 21 | 0 | 0.0 | 1.6 | 0.00 | 0.38 | 0.00 | 95 | 1014.1 |
| 20260510071552 | 21 | 0 | 0.0 | 1.6 | 0.00 | 0.38 | 0.00 | 95 | 1014.0 |
| 20260510071044 | 21 | 0 | 0.0 | 1.6 | 0.00 | 0.38 | 0.00 | 95 | 1013.9 |
| 20260510070546 | 21 | 0 | 0.0 | 1.6 | 0.00 | 0.38 | 0.00 | 95 | 1013.9 |
| 20260510065545 | 21 | 0 | 0.0 | 1.6 | 0.00 | 0.38 | 0.00 | 95 | 1014.0 |
| 20260510065045 | 21 | 102 | 0.0 | 1.6 | 0.00 | 0.38 | 0.00 | 95 | 1014.0 |
| 20260510064607 | 21 | 0 | 0.0 | 1.6 | 0.00 | 0.38 | 0.00 | 95 | 1014.1 |
| 20260510064045 | 21 | 0 | 0.0 | 1.6 | 0.00 | 0.38 | 0.00 | 95 | 1014.2 |
| 20260510063545 | 21 | 187 | 0.0 | 1.6 | 0.00 | 0.38 | 0.00 | 95 | 1014.3 |
| 20260510063052 | 21 | 0 | 0.0 | 4.8 | 0.00 | 0.38 | 0.00 | 95 | 1014.3 |
| 20260510062547 | 21 | 97 | 0.0 | 4.8 | 0.00 | 0.38 | 0.00 | 95 | 1014.3 |
| 20260510062045 | 21 | 60 | 0.0 | 3.2 | 0.00 | 0.38 | 0.00 | 95 | 1014.4 |
| 20260510061553 | 21 | 43 | 1.6 | 3.2 | 0.00 | 0.38 | 0.00 | 95 | 1014.3 |
| 20260510061048 | 21 | 122 | 0.0 | 1.6 | 0.00 | 0.38 | 0.00 | 95 | 1014.4 |
| 20260510060548 | 21 | 97 | 0.0 | 1.6 | 0.00 | 0.38 | 0.00 | 95 | 1014.6 |
| 20260510060046 | 21 | 0 | 0.0 | 1.6 | 0.00 | 0.38 | 0.00 | 95 | 1014.7 |
| 20260510055544 | 21 | 11 | 0.0 | 1.6 | 0.00 | 0.38 | 0.00 | 95 | 1014.8 |
| 20260510055044 | 21 | 10 | 0.0 | 1.6 | 0.00 | 0.38 | 0.00 | 95 | 1014.9 |
| 20260510054549 | 21 | 0 | 0.0 | 1.6 | 0.00 | 0.38 | 0.00 | 95 | 1015.0 |
| 20260510054046 | 21 | 0 | 0.0 | 0.0 | 0.00 | 0.38 | 0.00 | 95 | 1015.1 |
| 20260510053545 | 21 | 0 | 0.0 | 1.6 | 0.00 | 0.38 | 0.00 | 95 | 1015.1 |
| 20260510053050 | 21 | 0 | 0.0 | 1.6 | 0.00 | 0.38 | 0.00 | 95 | 1015.1 |
| 20260510052545 | 21 | 110 | 0.0 | 0.0 | 0.00 | 0.38 | 0.00 | 95 | 1015.1 |
| 20260510052047 | 21 | 153 | 0.0 | 1.6 | 0.00 | 0.38 | 0.00 | 95 | 1015.3 |
| 20260510051547 | 21 | 0 | 0.0 | 1.6 | 0.00 | 0.38 | 0.00 | 95 | 1015.4 |
| 20260510051045 | 21 | 0 | 0.0 | 1.6 | 0.00 | 0.38 | 0.00 | 95 | 1015.5 |
| 20260510050547 | 21 | 157 | 0.0 | 1.6 | 0.00 | 0.38 | 0.00 | 95 | 1015.7 |
| 20260510050052 | 21 | 0 | 0.0 | 0.0 | 0.00 | 0.38 | 0.00 | 95 | 1015.7 |
| 20260510045545 | 21 | 0 | 0.0 | 1.6 | 0.00 | 0.41 | 0.00 | 95 | 1015.8 |
| 20260510045045 | 21 | 0 | 0.0 | 1.6 | 0.00 | 0.41 | 0.00 | 95 | 1015.8 |
| 20260510044602 | 21 | 0 | 0.0 | 1.6 | 0.00 | 0.41 | 0.00 | 95 | 1015.9 |
| 20260510044044 | 21 | 0 | 0.0 | 1.6 | 0.00 | 0.41 | 0.00 | 95 | 1015.9 |
| 20260510043546 | 21 | 0 | 0.0 | 1.6 | 0.00 | 0.41 | 0.00 | 95 | 1015.8 |
| 20260510043051 | 21 | 105 | 0.0 | 1.6 | 0.00 | 0.41 | 0.00 | 95 | 1015.8 |
| 20260510042547 | 21 | 0 | 0.0 | 1.6 | 0.00 | 0.41 | 0.00 | 95 | 1015.8 |
| 20260510042043 | 21 | 0 | 0.0 | 1.6 | 0.00 | 0.41 | 0.00 | 95 | 1015.8 |
| 20260510041559 | 21 | 0 | 0.0 | 1.6 | 0.00 | 0.41 | 0.00 | 95 | 1015.8 |
| 20260510041046 | 21 | 0 | 0.0 | 1.6 | 0.00 | 0.41 | 0.00 | 95 | 1015.9 |
| 20260510040543 | 21 | 105 | 0.0 | 1.6 | 0.00 | 0.41 | 0.00 | 95 | 1015.8 |
| 20260510040051 | 21 | 105 | 0.0 | 1.6 | 0.00 | 0.41 | 0.00 | 94 | 1015.8 |
| 20260510035543 | 21 | 0 | 0.0 | 3.2 | 0.00 | 0.46 | 0.41 | 94 | 1015.9 |
| 20260510035044 | 21 | 105 | 0.0 | 3.2 | 0.00 | 0.46 | 0.41 | 94 | 1015.7 |
| 20260510034557 | 21 | 105 | 1.6 | 3.2 | 0.00 | 0.46 | 0.41 | 94 | 1015.8 |
| 20260510034044 | 21 | 41 | 0.0 | 1.6 | 0.00 | 0.46 | 0.41 | 94 | 1015.8 |
| 20260510033546 | 21 | 0 | 0.0 | 1.6 | 0.00 | 0.46 | 0.41 | 94 | 1015.9 |
| 20260510033051 | 21 | 64 | 0.0 | 1.6 | 0.00 | 0.46 | 0.41 | 94 | 1015.9 |
| 20260510032547 | 21 | 64 | 0.0 | 3.2 | 0.00 | 0.46 | 0.41 | 94 | 1015.9 |
| 20260510032044 | 21 | 0 | 0.0 | 3.2 | 0.00 | 0.46 | 0.41 | 94 | 1016.0 |
| 20260510031551 | 21 | 219 | 0.0 | 3.2 | 0.00 | 0.46 | 0.41 | 94 | 1016.1 |
| 20260510031046 | 21 | 120 | 0.0 | 3.2 | 0.00 | 0.46 | 0.41 | 94 | 1016.0 |
| 20260510030543 | 21 | 186 | 0.0 | 1.6 | 0.00 | 0.46 | 0.41 | 94 | 1016.0 |
| 20260510030057 | 21 | 103 | 0.0 | 1.6 | 0.00 | 0.46 | 0.41 | 94 | 1015.9 |
| 20260510025543 | 21 | 102 | 0.0 | 1.6 | 0.00 | 0.46 | 0.41 | 94 | 1015.9 |
| 20260510025045 | 21 | 0 | 0.0 | 1.6 | 0.00 | 0.46 | 0.41 | 94 | 1015.8 |
| 20260510024552 | 21 | 90 | 0.0 | 3.2 | 0.00 | 0.46 | 0.41 | 94 | 1015.6 |
| 20260510024045 | 21 | 18 | 0.0 | 3.2 | 0.00 | 0.46 | 0.41 | 94 | 1015.6 |
| 20260510023548 | 21 | 0 | 0.0 | 3.2 | 0.00 | 0.46 | 0.41 | 94 | 1015.4 |
| 20260510023048 | 21 | 210 | 0.0 | 3.2 | 0.00 | 0.46 | 0.41 | 94 | 1015.5 |
| 20260510022544 | 21 | 66 | 1.6 | 3.2 | 0.00 | 0.46 | 0.41 | 94 | 1015.0 |
| 20260510022047 | 21 | 0 | 0.0 | 3.2 | 0.00 | 0.46 | 0.41 | 94 | 1015.1 |
| 20260510021548 | 21 | 67 | 0.0 | 3.2 | 0.00 | 0.46 | 0.41 | 94 | 1014.9 |
| 20260510021042 | 21 | 63 | 0.0 | 1.6 | 0.00 | 0.46 | 0.41 | 94 | 1015.0 |
| 20260510020543 | 21 | 189 | 0.0 | 3.2 | 0.00 | 0.46 | 0.41 | 94 | 1015.1 |
| 20260510020047 | 21 | 191 | 0.0 | 3.2 | 0.00 | 0.46 | 0.41 | 94 | 1015.1 |
| 20260510015544 | 21 | 60 | 1.6 | 3.2 | 0.00 | 0.46 | 0.41 | 94 | 1014.7 |
| 20260510015043 | 21 | 103 | 1.6 | 1.6 | 0.00 | 0.46 | 0.41 | 94 | 1014.5 |
| 20260510014550 | 21 | 105 | 0.0 | 1.6 | 0.00 | 0.46 | 0.41 | 94 | 1014.6 |
| 20260510014043 | 21 | 0 | 0.0 | 1.6 | 0.00 | 0.46 | 0.41 | 94 | 1014.4 |
| 20260510013543 | 21 | 105 | 0.0 | 1.6 | 0.00 | 0.46 | 0.41 | 94 | 1014.3 |
| 20260510013058 | 21 | 0 | 0.0 | 3.2 | 0.00 | 0.46 | 0.41 | 94 | 1014.3 |
| 20260510012543 | 21 | 105 | 0.0 | 3.2 | 0.00 | 0.46 | 0.41 | 94 | 1014.3 |
| 20260510012043 | 21 | 122 | 1.6 | 3.2 | 0.00 | 0.46 | 0.41 | 94 | 1014.4 |
| 20260510011548 | 21 | 145 | 0.0 | 1.6 | 0.00 | 0.46 | 0.41 | 94 | 1014.4 |
| 20260510011043 | 21 | 0 | 0.0 | 1.6 | 0.00 | 0.46 | 0.41 | 94 | 1014.3 |
| 20260510010543 | 21 | 0 | 0.0 | 1.6 | 0.03 | 0.46 | 0.41 | 94 | 1014.2 |
| 20260510010050 | 21 | 63 | 0.0 | 1.6 | 0.03 | 0.46 | 0.41 | 93 | 1014.2 |
| 20260510005543 | 21 | 0 | 0.0 | 1.6 | 0.03 | 0.46 | 0.41 | 93 | 1014.3 |
| 20260510005043 | 21 | 0 | 0.0 | 3.2 | 0.05 | 0.46 | 0.41 | 93 | 1014.1 |
| 20260510004550 | 21 | 0 | 0.0 | 3.2 | 0.05 | 0.46 | 0.41 | 93 | 1014.2 |
| 20260510004043 | 21 | 77 | 1.6 | 3.2 | 0.05 | 0.46 | 0.41 | 93 | 1014.2 |
| 20260510003553 | 21 | 103 | 1.6 | 3.2 | 0.05 | 0.46 | 0.41 | 93 | 1014.2 |
| 20260510003056 | 21 | 98 | 0.0 | 1.6 | 0.05 | 0.46 | 0.41 | 93 | 1014.2 |
| 20260510002542 | 21 | 0 | 0.0 | 0.0 | 0.05 | 0.46 | 0.41 | 93 | 1014.4 |
| 20260510002043 | 21 | 0 | 0.0 | 0.0 | 0.05 | 0.46 | 0.41 | 93 | 1014.5 |
| 20260510001551 | 22 | 0 | 0.0 | 1.6 | 0.05 | 0.46 | 0.41 | 93 | 1014.4 |
| 20260510001043 | 22 | 0 | 0.0 | 1.6 | 0.05 | 0.46 | 0.41 | 93 | 1014.6 |
| 20260510000543 | 22 | 244 | 0.0 | 1.6 | 0.03 | 0.43 | 0.38 | 93 | 1014.7 |
| 20260510000057 | 22 | 0 | 0.0 | 1.6 | 0.03 | 0.43 | 0.38 | 93 | 1014.6 |
| 20260509235543 | 22 | 0 | 0.0 | 1.6 | 0.03 | 0.43 | 0.38 | 93 | 1014.6 |
| 20260509235042 | 22 | 0 | 0.0 | 1.6 | 0.00 | 0.41 | 0.36 | 93 | 1014.7 |
| 20260509234604 | 22 | 278 | 0.0 | 1.6 | 0.00 | 0.41 | 0.36 | 92 | 1014.6 |
| 20260509234044 | 22 | 0 | 0.0 | 1.6 | 0.00 | 0.41 | 0.36 | 92 | 1014.5 |
| 20260509233542 | 22 | 0 | 0.0 | 0.0 | 0.00 | 0.41 | 0.36 | 92 | 1014.4 |
| 20260509233056 | 22 | 0 | 0.0 | 0.0 | 0.00 | 0.41 | 0.36 | 92 | 1014.5 |
| 20260509232543 | 22 | 0 | 0.0 | 0.0 | 0.00 | 0.41 | 0.36 | 92 | 1014.5 |
| 20260509232043 | 22 | 0 | 0.0 | 0.0 | 0.00 | 0.41 | 0.36 | 92 | 1014.4 |
| 20260509231608 | 22 | 307 | 0.0 | 6.4 | 0.00 | 0.41 | 0.36 | 92 | 1014.3 |
| 20260509231048 | 22 | 307 | 0.0 | 6.4 | 0.00 | 0.41 | 0.36 | 92 | 1014.4 |
| 20260509230543 | 22 | 30 | 3.2 | 9.7 | 0.03 | 0.41 | 0.36 | 92 | 1014.4 |
| 20260509230104 | 22 | 4 | 3.2 | 9.7 | 0.05 | 0.41 | 0.36 | 92 | 1014.3 |
| 20260509225544 | 22 | 349 | 0.0 | 6.4 | 0.08 | 0.41 | 0.36 | 92 | 1014.3 |
| 20260509225042 | 22 | 348 | 3.2 | 6.4 | 0.08 | 0.41 | 0.36 | 92 | 1014.2 |
| 20260509224554 | 22 | 333 | 0.0 | 6.4 | 0.08 | 0.41 | 0.36 | 92 | 1014.3 |
| 20260509224048 | 22 | 193 | 0.0 | 6.4 | 0.10 | 0.41 | 0.36 | 92 | 1014.3 |
| 20260509223543 | 22 | 15 | 1.6 | 6.4 | 0.10 | 0.41 | 0.36 | 91 | 1014.1 |
| 20260509223049 | 22 | 53 | 1.6 | 6.4 | 0.10 | 0.41 | 0.36 | 92 | 1014.2 |
| 20260509222545 | 22 | 55 | 0.0 | 4.8 | 0.10 | 0.41 | 0.36 | 92 | 1014.3 |
| 20260509222044 | 22 | 313 | 0.0 | 4.8 | 0.10 | 0.41 | 0.36 | 91 | 1014.3 |
| 20260509221549 | 22 | 300 | 1.6 | 4.8 | 0.10 | 0.41 | 0.36 | 91 | 1014.4 |
| 20260509221048 | 22 | 281 | 3.2 | 4.8 | 0.10 | 0.41 | 0.36 | 91 | 1014.1 |
| 20260509220545 | 22 | 255 | 1.6 | 4.8 | 0.08 | 0.38 | 0.33 | 90 | 1014.2 |
| 20260509220051 | 23 | 299 | 0.0 | 4.8 | 0.05 | 0.36 | 0.30 | 90 | 1014.2 |
| 20260509215544 | 23 | 0 | 1.6 | 4.8 | 0.03 | 0.33 | 0.28 | 90 | 1014.2 |
| 20260509215046 | 23 | 300 | 1.6 | 4.8 | 0.03 | 0.33 | 0.28 | 90 | 1014.2 |
| 20260509214550 | 23 | 267 | 0.0 | 3.2 | 0.03 | 0.33 | 0.28 | 89 | 1014.1 |
| 20260509214044 | 23 | 317 | 0.0 | 4.8 | 0.00 | 0.30 | 0.25 | 89 | 1014.0 |
| 20260509213545 | 23 | 20 | 1.6 | 4.8 | 0.00 | 0.30 | 0.25 | 89 | 1013.8 |
| 20260509213057 | 23 | 11 | 1.6 | 8.0 | 0.00 | 0.30 | 0.25 | 89 | 1014.0 |
| 20260509212541 | 23 | 0 | 1.6 | 8.0 | 0.00 | 0.30 | 0.25 | 89 | 1014.0 |
| 20260509212047 | 23 | 288 | 3.2 | 8.0 | 0.00 | 0.30 | 0.25 | 88 | 1014.0 |
| 20260509211558 | 23 | 14 | 0.0 | 3.2 | 0.00 | 0.30 | 0.25 | 89 | 1013.9 |
| 20260509211043 | 23 | 316 | 0.0 | 3.2 | 0.00 | 0.30 | 0.25 | 88 | 1013.9 |
| 20260509210544 | 24 | 272 | 0.0 | 3.2 | 0.00 | 0.30 | 0.25 | 88 | 1013.9 |
| 20260509210108 | 23 | 274 | 0.0 | 8.0 | 0.00 | 0.30 | 0.25 | 88 | 1013.9 |
| 20260509205549 | 23 | 267 | 0.0 | 8.0 | 0.00 | 0.30 | 0.25 | 89 | 1013.9 |
| 20260509205045 | 23 | 281 | 3.2 | 6.4 | 0.00 | 0.30 | 0.25 | 89 | 1013.9 |
| 20260509204555 | 24 | 293 | 1.6 | 4.8 | 0.00 | 0.30 | 0.25 | 89 | 1013.8 |
| 20260509204044 | 24 | 0 | 0.0 | 3.2 | 0.13 | 0.30 | 0.25 | 90 | 1013.8 |
| 20260509203548 | 23 | 0 | 1.6 | 3.2 | 0.15 | 0.30 | 0.25 | 90 | 1013.7 |
| 20260509203100 | 23 | 290 | 1.6 | 3.2 | 0.15 | 0.30 | 0.25 | 89 | 1013.7 |
| 20260509202548 | 23 | 233 | 0.0 | 1.6 | 0.15 | 0.30 | 0.25 | 89 | 1013.6 |
| 20260509202047 | 23 | 165 | 0.0 | 1.6 | 0.15 | 0.30 | 0.25 | 89 | 1013.7 |
| 20260509201559 | 23 | 197 | 0.0 | 1.6 | 0.15 | 0.30 | 0.25 | 88 | 1013.7 |
| 20260509201045 | 23 | 240 | 0.0 | 1.6 | 0.15 | 0.30 | 0.25 | 89 | 1013.8 |
| 20260509200545 | 23 | 316 | 0.0 | 4.8 | 0.15 | 0.30 | 0.25 | 90 | 1013.7 |
| 20260509195548 | 23 | 179 | 0.0 | 8.0 | 0.18 | 0.30 | 0.25 | 89 | 1013.7 |
| 20260509195044 | 23 | 260 | 1.6 | 9.7 | 0.18 | 0.30 | 0.25 | 89 | 1013.7 |
| 20260509194548 | 24 | 353 | 3.2 | 9.7 | 0.20 | 0.30 | 0.25 | 87 | 1013.6 |
| 20260509194047 | 25 | 302 | 1.6 | 3.2 | 0.08 | 0.18 | 0.13 | 87 | 1013.8 |
| 20260509193544 | 25 | 271 | 1.6 | 1.6 | 0.08 | 0.15 | 0.10 | 87 | 1013.8 |
| 20260509193056 | 25 | 332 | 0.0 | 1.6 | 0.08 | 0.15 | 0.10 | 87 | 1013.9 |
| 20260509192544 | 25 | 265 | 0.0 | 1.6 | 0.08 | 0.15 | 0.10 | 86 | 1013.8 |
| 20260509192044 | 25 | 265 | 0.0 | 1.6 | 0.08 | 0.15 | 0.10 | 86 | 1013.8 |
| 20260509191555 | 25 | 272 | 0.0 | 1.6 | 0.08 | 0.15 | 0.10 | 88 | 1013.8 |
| 20260509191042 | 25 | 272 | 0.0 | 1.6 | 0.08 | 0.15 | 0.10 | 84 | 1013.6 |
| 20260509190547 | 25 | 0 | 0.0 | 1.6 | 0.08 | 0.15 | 0.10 | 87 | 1013.7 |
| 20260509190108 | 25 | 197 | 0.0 | 0.0 | 0.08 | 0.15 | 0.10 | 88 | 1013.6 |
| 20260509185543 | 25 | 197 | 0.0 | 0.0 | 0.05 | 0.13 | 0.08 | 86 | 1013.8 |
| 20260509185042 | 26 | 195 | 0.0 | 0.0 | 0.05 | 0.13 | 0.08 | 85 | 1013.6 |
| 20260509184557 | 26 | 0 | 0.0 | 1.6 | 0.03 | 0.10 | 0.05 | 83 | 1013.8 |
| 20260509184043 | 26 | 195 | 0.0 | 1.6 | 0.03 | 0.10 | 0.05 | 82 | 1013.8 |
| 20260509183545 | 26 | 195 | 1.6 | 3.2 | 0.00 | 0.08 | 0.03 | 80 | 1014.0 |
| 20260509183047 | 26 | 0 | 0.0 | 3.2 | 0.00 | 0.08 | 0.03 | 78 | 1014.0 |
| 20260509182542 | 27 | 218 | 1.6 | 3.2 | 0.00 | 0.08 | 0.03 | 74 | 1014.1 |
| 20260509182041 | 27 | 203 | 0.0 | 1.6 | 0.00 | 0.08 | 0.03 | 74 | 1014.0 |
| 20260509181555 | 27 | 221 | 0.0 | 3.2 | 0.00 | 0.08 | 0.03 | 72 | 1014.1 |
| 20260509181042 | 27 | 155 | 0.0 | 6.4 | 0.00 | 0.08 | 0.03 | 74 | 1014.3 |
| 20260509180542 | 27 | 180 | 3.2 | 6.4 | 0.00 | 0.08 | 0.03 | 73 | 1014.1 |
| 20260509180100 | 27 | 193 | 1.6 | 6.4 | 0.00 | 0.08 | 0.03 | 73 | 1014.2 |
| 20260509175541 | 27 | 199 | 1.6 | 3.2 | 0.00 | 0.08 | 0.03 | 73 | 1014.2 |
| 20260509175041 | 27 | 279 | 1.6 | 9.7 | 0.00 | 0.08 | 0.03 | 73 | 1014.3 |
| 20260509174555 | 27 | 280 | 3.2 | 9.7 | 0.00 | 0.08 | 0.03 | 72 | 1014.2 |
| 20260509174042 | 27 | 243 | 3.2 | 8.0 | 0.00 | 0.08 | 0.03 | 73 | 1014.4 |
| 20260509173541 | 27 | 231 | 4.8 | 8.0 | 0.00 | 0.08 | 0.03 | 70 | 1014.4 |
| 20260509173057 | 27 | 255 | 1.6 | 4.8 | 0.00 | 0.08 | 0.03 | 73 | 1014.3 |
| 20260509172545 | 27 | 206 | 1.6 | 6.4 | 0.00 | 0.08 | 0.03 | 73 | 1014.2 |
| 20260509172045 | 27 | 240 | 1.6 | 6.4 | 0.00 | 0.08 | 0.03 | 73 | 1014.2 |
| 20260509171555 | 27 | 205 | 3.2 | 9.7 | 0.00 | 0.08 | 0.03 | 73 | 1014.1 |
| 20260509171041 | 26 | 151 | 1.6 | 9.7 | 0.00 | 0.08 | 0.03 | 74 | 1014.2 |
| 20260509170544 | 26 | 141 | 1.6 | 8.0 | 0.00 | 0.08 | 0.03 | 75 | 1014.3 |
| 20260509165545 | 27 | 231 | 1.6 | 4.8 | 0.00 | 0.08 | 0.03 | 74 | 1014.3 |
| 20260509165041 | 26 | 113 | 0.0 | 3.2 | 0.00 | 0.08 | 0.03 | 76 | 1014.4 |
| 20260509164551 | 26 | 214 | 0.0 | 3.2 | 0.00 | 0.08 | 0.03 | 76 | 1014.4 |
| 20260509164042 | 26 | 297 | 1.6 | 3.2 | 0.00 | 0.08 | 0.03 | 75 | 1014.5 |
| 20260509163542 | 26 | 222 | 1.6 | 3.2 | 0.00 | 0.08 | 0.03 | 76 | 1014.5 |
| 20260509163104 | 26 | 291 | 1.6 | 4.8 | 0.00 | 0.08 | 0.03 | 77 | 1014.5 |
| 20260509162545 | 26 | 198 | 1.6 | 4.8 | 0.00 | 0.08 | 0.03 | 76 | 1014.5 |
| 20260509162045 | 26 | 95 | 1.6 | 4.8 | 0.00 | 0.08 | 0.03 | 77 | 1014.5 |
| 20260509161556 | 26 | 135 | 1.6 | 6.4 | 0.00 | 0.08 | 0.03 | 77 | 1014.6 |
| 20260509161045 | 26 | 286 | 1.6 | 6.4 | 0.00 | 0.08 | 0.03 | 78 | 1014.5 |
| 20260509160543 | 26 | 160 | 1.6 | 4.8 | 0.00 | 0.08 | 0.03 | 78 | 1014.6 |
| 20260509160049 | 26 | 247 | 1.6 | 4.8 | 0.00 | 0.08 | 0.03 | 77 | 1015.1 |
| 20260509155541 | 26 | 0 | 1.6 | 4.8 | 0.00 | 0.08 | 0.03 | 78 | 1014.8 |
| 20260509155045 | 25 | 203 | 1.6 | 4.8 | 0.00 | 0.08 | 0.03 | 78 | 1014.8 |
| 20260509154605 | 25 | 0 | 1.6 | 6.4 | 0.00 | 0.08 | 0.03 | 79 | 1014.9 |
| 20260509154042 | 25 | 243 | 3.2 | 6.4 | 0.00 | 0.08 | 0.03 | 78 | 1014.8 |
| 20260509153543 | 25 | 214 | 3.2 | 6.4 | 0.00 | 0.08 | 0.03 | 79 | 1014.6 |
| 20260509153053 | 25 | 190 | 1.6 | 4.8 | 0.00 | 0.08 | 0.03 | 79 | 1014.5 |
| 20260509152543 | 25 | 299 | 0.0 | 4.8 | 0.00 | 0.08 | 0.03 | 79 | 1014.4 |
| 20260509152044 | 25 | 330 | 1.6 | 4.8 | 0.00 | 0.08 | 0.03 | 79 | 1014.5 |
| 20260509151552 | 25 | 146 | 0.0 | 4.8 | 0.00 | 0.08 | 0.03 | 80 | 1014.5 |
| 20260509151043 | 25 | 186 | 1.6 | 6.4 | 0.00 | 0.08 | 0.03 | 80 | 1014.7 |
| 20260509150544 | 25 | 215 | 1.6 | 6.4 | 0.00 | 0.08 | 0.03 | 79 | 1014.6 |
| 20260509150104 | 25 | 149 | 1.6 | 8.0 | 0.00 | 0.08 | 0.03 | 79 | 1015.1 |
| 20260509145547 | 25 | 175 | 1.6 | 8.0 | 0.00 | 0.08 | 0.03 | 80 | 1015.2 |
| 20260509145042 | 25 | 231 | 1.6 | 6.4 | 0.00 | 0.08 | 0.03 | 79 | 1014.9 |
| 20260509144556 | 25 | 317 | 1.6 | 4.8 | 0.00 | 0.08 | 0.03 | 81 | 1014.9 |
| 20260509144045 | 25 | 153 | 0.0 | 6.4 | 0.00 | 0.08 | 0.03 | 82 | 1014.8 |
| 20260509143543 | 25 | 90 | 1.6 | 12.9 | 0.00 | 0.08 | 0.03 | 82 | 1014.6 |
| 20260509143055 | 24 | 72 | 3.2 | 12.9 | 0.00 | 0.08 | 0.03 | 82 | 1014.8 |
| 20260509142542 | 24 | 203 | 6.4 | 12.9 | 0.00 | 0.08 | 0.03 | 81 | 1014.6 |
| 20260509142042 | 25 | 115 | 3.2 | 8.0 | 0.00 | 0.08 | 0.03 | 81 | 1014.5 |
| 20260509141552 | 24 | 336 | 3.2 | 8.0 | 0.00 | 0.08 | 0.03 | 81 | 1014.5 |
| 20260509141044 | 24 | 219 | 1.6 | 6.4 | 0.00 | 0.08 | 0.03 | 83 | 1014.5 |
| 20260509140543 | 24 | 184 | 1.6 | 6.4 | 0.00 | 0.08 | 0.03 | 82 | 1014.6 |
| 20260509140057 | 24 | 159 | 1.6 | 4.8 | 0.00 | 0.08 | 0.03 | 83 | 1015.0 |
| 20260509135548 | 24 | 254 | 1.6 | 4.8 | 0.00 | 0.08 | 0.03 | 84 | 1015.1 |
| 20260509135044 | 24 | 209 | 1.6 | 3.2 | 0.00 | 0.08 | 0.03 | 86 | 1015.0 |
| 20260509134548 | 24 | 307 | 0.0 | 4.8 | 0.00 | 0.08 | 0.03 | 86 | 1014.9 |
| 20260509134042 | 23 | 274 | 1.6 | 9.7 | 0.00 | 0.08 | 0.03 | 86 | 1014.9 |
| 20260509133543 | 23 | 239 | 1.6 | 9.7 | 0.00 | 0.08 | 0.03 | 86 | 1014.7 |
| 20260509133055 | 23 | 221 | 6.4 | 9.7 | 0.00 | 0.08 | 0.03 | 86 | 1014.5 |
| 20260509132543 | 23 | 202 | 3.2 | 9.7 | 0.00 | 0.08 | 0.03 | 85 | 1014.2 |
| 20260509132042 | 23 | 151 | 3.2 | 9.7 | 0.00 | 0.08 | 0.03 | 86 | 1014.2 |
| 20260509131548 | 23 | 67 | 1.6 | 4.8 | 0.00 | 0.08 | 0.03 | 86 | 1014.2 |
| 20260509131042 | 23 | 123 | 0.0 | 4.8 | 0.00 | 0.08 | 0.03 | 87 | 1014.1 |
| 20260509130544 | 23 | 152 | 1.6 | 11.3 | 0.00 | 0.08 | 0.03 | 87 | 1014.1 |
| 20260509130055 | 22 | 281 | 3.2 | 11.3 | 0.00 | 0.08 | 0.03 | 87 | 1014.2 |
| 20260509125542 | 23 | 289 | 3.2 | 9.7 | 0.00 | 0.08 | 0.03 | 87 | 1014.1 |
| 20260509125042 | 23 | 207 | 1.6 | 8.0 | 0.00 | 0.08 | 0.03 | 88 | 1014.2 |
| 20260509124559 | 22 | 150 | 3.2 | 8.0 | 0.00 | 0.08 | 0.03 | 88 | 1014.0 |
| 20260509124044 | 22 | 121 | 1.6 | 4.8 | 0.00 | 0.08 | 0.03 | 89 | 1014.0 |
| 20260509123542 | 22 | 190 | 1.6 | 4.8 | 0.00 | 0.08 | 0.03 | 89 | 1013.8 |